Showing default

BEIDOU 3M9, 43581

Orbit data source: Space-Track

BEIDOU 3M9, 43581 is a payload satellite owned by CNSA (CN) in MEO that was launched on Sun, 29 Jul 2018 UTC via a CHANG ZHENG 3B/YZ-1 launch vehicle from the Xichang Space Center, China (XSC). Payload-class satellites include a variety of spacecraft equipped with specific instruments for various scientific and technological missions. These include communications satellites like Starlink; space stations such as the ISS; scientific satellites like the Hubble; Earth observation satellites from companies like Planet Labs, Umbra, and HawkEye 360; GPS; miniature CubeSats for education and research; and military/defense satellites.

Loading next visibility...
Identifier
43581, 2018-062A
Orbit
MEO
Country
Flag of CNCN / PRC
Related business
Manufacturer
CAST
Mission
Operational Defense Navigation
Bus & Motor
BD-3M, Unknown motor
Mass
1,014 kg wet, ~850 kg dry
Launch date (UTC)
2018-07-29 (8 years ago)
Launch vehicle
CHANG ZHENG 3B/YZ-1
Launch site
Xichang Space Center, China (XSC)
Object type
Payload
Rocket body
Debris
Shape & HBR
Box + 2 Pan, 5.0 m
Radar Cross Section
8.984 m², Large (>1 m²)

Expand to show TLE details & history
Last TLE update: 1 day ago

TLE from 1 day ago
0 BEIDOU 3M9
1 43581U 18062A   26262.07439141 -.00000025  00000-0  00000-0 0  9993
2 43581  54.0825 179.1139 0003909 314.9426  45.0471  1.86229013 55382
Epoch: 2026-09-19T01:47Z
TLE epoch observation values (Epoch: 2026-09-19T01:47:07.417Z)
Latitude
0.00003°
Longitude
154.34387°
Altitude
21,520.794 km
Speed
3.78 km/s
True Right ascension
11h 56m 27s
True Declination
0° 00' 00"
Sunlit
Object was in daylight at epoch
Visualization orbit readout
Latitude
Unknown
Longitude
Unknown
Altitude
Unknown
Speed
Unknown
Apparent Right ascension
Unknown
Apparent Declination
Unknown
Sunlit
N/A
Visualization observer readout
Local Sidereal Time
04:41:56
Azimuth
Unknown
Elevation
Unknown
Doppler factor
Unknown
Orbital elements
Apogee altitude
21,539.201 km
Perigee altitude
21,517.384 km
Semi-major axis
27,906.43 km
Eccentricity
0.00039
Inclination
54.0825°
RAAN
179.1139°
Arg. of periapsis
314.9426°
True anomaly
45.07881°
Mean anomaly
45.0471°
Eccentric anomaly
45.06295°
Mean motion
0.46557 °/min
Orbital period
773.24 mins
BSTAR
0
Loading maneuver chart data...
Computing Atmospheric mass density...
Loading historical data...
Loading historical data...
Loading historical data...
Loading historical data...
Loading historical data...
Loading historical data...
Loading historical data...
Other satellites on launch #62 in the year 2018 (2018-07-29 UTC)

Documentation

Showing up to 5 results
|